Change the Weather History Date:

Thursday, July 11, 2013

  Actual Average Record
Temperature  
Mean Temperature 70 °F -  
Max Temperature 82 °F 85 °F 101 °F (1966)
Min Temperature 59 °F 62 °F 45 °F (1975)
Cooling Degree Days 6    
Growing Degree Days 20 (Base 50)    
Moisture  
Dew Point 61 °F    
Average Humidity 68    
Maximum Humidity 94    
Minimum Humidity 51    
Precipitation  
Precipitation 0.00 in - - ()
Sea Level Pressure  
Sea Level Pressure 30.02 in    
Wind  
Wind Speed 7 mph (SSW)    
Max Wind Speed 17 mph    
Max Gust Speed 23 mph    
Visibility 9 miles    
Events      
Averages and records for this station are not official NWS values.
T = Trace of Precipitation, MM = Missing Value Source: NWS Daily Summary

Daily Weather History Graph

Daily Weather History Graph

Search for Another Location

Airport or City:

Trip Planner

Search our weather history database for the weather conditions in past years. The results will help you decide how hot, cold, wet, or windy it might be!

Date:

Astronomy

Jul. 11, 2013 Rise Set
Actual Time 5:47 AM CDT 9:09 PM CDT
Civil Twilight 5:11 AM CDT 9:45 PM CDT
Nautical Twilight 4:23 AM CDT 10:32 PM CDT
Astronomical Twilight 3:23 AM CDT 11:31 PM CDT
Moon 9:17 AM CDT (7/11) 10:37 PM CDT (7/11)
Length of Visible Light 16h 34m
Length of Day
15h 21m
Waxing Crescent, 11% of the Moon is Illuminated
Jul 11
Waxing Crescent
Jul 15
First Quarter
Jul 22
Full
Jul 29
Last Quarter
Aug 6
New

Hourly Weather History & Observations

Time (CDT) Temp. Heat Index Dew Point Humidity Pressure Visibility Wind Dir Wind Speed Gust Speed Precip Events Conditions
12:14 AM 66.2 °F - 59.0 °F 78% 30.08 in 10.0 mi South 3.5 mph - N/A   Clear
12:34 AM 64.4 °F - 60.8 °F 88% 30.08 in 10.0 mi SSE 4.6 mph - N/A   Clear
12:54 AM 66.2 °F - 57.2 °F 73% 30.08 in 10.0 mi South 3.5 mph - N/A   Clear
1:14 AM 64.4 °F - 59.0 °F 83% 30.08 in 10.0 mi South 4.6 mph - N/A   Clear
1:34 AM 64.4 °F - 57.2 °F 77% 30.08 in 10.0 mi South 4.6 mph - N/A   Clear
1:54 AM 64.4 °F - 57.2 °F 77% 30.08 in 10.0 mi South 4.6 mph - N/A   Clear
2:14 AM 62.6 °F - 57.2 °F 82% 30.08 in 10.0 mi South 4.6 mph - N/A   Clear
2:34 AM 62.6 °F - 57.2 °F 82% 30.08 in 10.0 mi South 4.6 mph - N/A   Clear
2:54 AM 62.6 °F - 59.0 °F 88% 30.08 in 10.0 mi South 5.8 mph - N/A   Clear
3:14 AM 62.6 °F - 59.0 °F 88% 30.08 in 10.0 mi South 4.6 mph - N/A   Clear
3:34 AM 62.6 °F - 60.8 °F 94% 30.08 in 7.0 mi SSW 4.6 mph - N/A   Clear
3:54 AM 60.8 °F - 59.0 °F 94% 30.09 in 7.0 mi South 5.8 mph - N/A   Clear
4:14 AM 62.6 °F - 59.0 °F 88% 30.08 in 7.0 mi South 4.6 mph - N/A   Clear
4:34 AM 62.6 °F - 59.0 °F 88% 30.09 in 7.0 mi South 4.6 mph - N/A   Clear
4:54 AM 62.6 °F - 59.0 °F 88% 30.09 in 7.0 mi South 5.8 mph - N/A   Clear
5:14 AM 62.6 °F - 57.2 °F 82% 30.09 in 7.0 mi South 4.6 mph - N/A   Clear
5:34 AM 60.8 °F - 57.2 °F 88% 30.09 in 7.0 mi South 4.6 mph - N/A   Clear
5:54 AM 59.0 °F - 57.2 °F 94% 30.09 in 7.0 mi South 6.9 mph - N/A   Clear
6:14 AM 60.8 °F - 57.2 °F 88% 30.09 in 7.0 mi South 6.9 mph - N/A   Clear
6:34 AM 60.8 °F - 57.2 °F 88% 30.10 in 7.0 mi South 4.6 mph - N/A   Clear
6:54 AM 60.8 °F - 59.0 °F 94% 30.09 in 7.0 mi South 5.8 mph - N/A   Clear
7:13 AM 62.6 °F - 59.0 °F 88% 30.10 in 7.0 mi South 5.8 mph - N/A   Clear
7:34 AM 64.4 °F - 57.2 °F 77% 30.10 in 7.0 mi SSW 5.8 mph - N/A   Clear
7:54 AM 64.4 °F - 57.2 °F 77% 30.11 in 7.0 mi SSW 8.1 mph - N/A   Clear
8:13 AM 66.2 °F - 59.0 °F 78% 30.10 in 7.0 mi SSW 6.9 mph - N/A   Clear
8:34 AM 68.0 °F - 60.8 °F 78% 30.11 in 7.0 mi SSW 9.2 mph - N/A   Scattered Clouds
8:54 AM 69.8 °F - 60.8 °F 73% 30.10 in 7.0 mi SSW 6.9 mph - N/A   Scattered Clouds
9:13 AM 69.8 °F - 60.8 °F 73% 30.09 in 10.0 mi SSW 8.1 mph - N/A   Clear
9:34 AM 71.6 °F - 62.6 °F 73% 30.07 in 7.0 mi South 11.5 mph 16.1 mph N/A   Clear
9:54 AM 73.4 °F - 60.8 °F 65% 30.07 in 10.0 mi South 9.2 mph - N/A   Clear
10:14 AM 73.4 °F - 62.6 °F 69% 30.06 in 10.0 mi South 12.7 mph 16.1 mph N/A   Clear
10:34 AM 75.2 °F - 62.6 °F 65% 30.06 in 10.0 mi SSW 12.7 mph - N/A   Clear
10:54 AM 75.2 °F - 60.8 °F 61% 30.07 in 10.0 mi SSW 13.8 mph 19.6 mph N/A   Clear
11:14 AM 75.2 °F - 62.6 °F 65% 30.07 in 10.0 mi SSW 13.8 mph 19.6 mph N/A   Clear
11:34 AM 77.0 °F - 62.6 °F 61% 30.06 in 10.0 mi SSW 10.4 mph 18.4 mph N/A   Clear
11:54 AM 78.8 °F - 62.6 °F 57% 30.05 in 10.0 mi SSW 13.8 mph 20.7 mph N/A   Scattered Clouds
12:14 PM 78.8 °F - 60.8 °F 54% 30.04 in 10.0 mi SSW 12.7 mph - N/A   Clear
12:34 PM 78.8 °F - 62.6 °F 57% 30.03 in 10.0 mi South 11.5 mph 20.7 mph N/A   Clear
12:54 PM 78.8 °F - 62.6 °F 57% 30.02 in 10.0 mi South 16.1 mph - N/A   Clear
1:14 PM 80.6 °F 81.8 °F 62.6 °F 54% 30.02 in 10.0 mi South 11.5 mph 18.4 mph N/A   Clear
1:34 PM 80.6 °F 81.8 °F 62.6 °F 54% 30.01 in 10.0 mi South 11.5 mph 19.6 mph N/A   Clear
1:54 PM 80.6 °F 81.8 °F 62.6 °F 54% 30.01 in 10.0 mi South 17.3 mph 20.7 mph N/A   Clear
2:14 PM 80.6 °F 81.8 °F 62.6 °F 54% 30.00 in 10.0 mi South 12.7 mph 19.6 mph N/A   Clear
2:34 PM 80.6 °F 82.3 °F 64.4 °F 58% 30.00 in 10.0 mi SSW 15.0 mph 18.4 mph N/A   Clear
2:53 PM 82.4 °F 83.9 °F 64.4 °F 54% 29.99 in 10.0 mi South 15.0 mph - N/A   Clear
3:14 PM 82.4 °F 83.9 °F 64.4 °F 54% 29.99 in 10.0 mi South 10.4 mph 20.7 mph N/A   Clear
3:31 PM 82.4 °F 83.9 °F 64.4 °F 54% 29.98 in 10.0 mi South 9.2 mph - N/A   Clear
3:54 PM 82.4 °F 83.9 °F 64.4 °F 54% 29.98 in 10.0 mi SSW 11.5 mph 20.7 mph N/A   Clear
4:14 PM 82.4 °F 83.9 °F 64.4 °F 54% 29.97 in 10.0 mi SSW 13.8 mph 23.0 mph N/A   Clear
4:34 PM 82.4 °F 83.9 °F 64.4 °F 54% 29.96 in 10.0 mi South 12.7 mph 20.7 mph N/A   Clear
4:53 PM 82.4 °F 83.9 °F 64.4 °F 54% 29.96 in 10.0 mi SSW 13.8 mph 21.9 mph N/A   Clear
5:14 PM 82.4 °F 83.4 °F 62.6 °F 51% 29.96 in 10.0 mi SSW 13.8 mph 18.4 mph N/A   Clear
5:34 PM 82.4 °F 83.4 °F 62.6 °F 51% 29.95 in 10.0 mi SSW 12.7 mph 20.7 mph N/A   Clear
5:54 PM 82.4 °F 83.9 °F 64.4 °F 54% 29.95 in 10.0 mi SSW 11.5 mph - N/A   Scattered Clouds
6:14 PM 82.4 °F 83.9 °F 64.4 °F 54% 29.94 in 10.0 mi SSW 10.4 mph 17.3 mph N/A   Scattered Clouds
6:34 PM 82.4 °F 83.4 °F 62.6 °F 51% 29.93 in 10.0 mi SSW 12.7 mph 18.4 mph N/A   Scattered Clouds
6:52 PM 82.4 °F 83.9 °F 64.4 °F 54% 29.94 in 10.0 mi SSW 12.7 mph 17.3 mph N/A   Scattered Clouds
7:14 PM 82.4 °F 83.4 °F 62.6 °F 51% 29.93 in 10.0 mi SSW 11.5 mph - N/A   Clear
7:34 PM 82.4 °F 83.9 °F 64.4 °F 54% 29.93 in 10.0 mi SSW 12.7 mph 17.3 mph N/A   Scattered Clouds
7:54 PM 82.4 °F 83.9 °F 64.4 °F 54% 29.93 in 10.0 mi SSW 9.2 mph - N/A   Scattered Clouds
8:14 PM 80.6 °F 81.8 °F 62.6 °F 54% 29.93 in 10.0 mi SSW 9.2 mph 16.1 mph N/A   Scattered Clouds
8:34 PM 80.6 °F 81.8 °F 62.6 °F 54% 29.92 in 10.0 mi SSW 10.4 mph - N/A   Clear
8:54 PM 78.8 °F - 64.4 °F 61% 29.92 in 10.0 mi South 6.9 mph - N/A   Clear
9:14 PM 77.0 °F - 64.4 °F 65% 29.92 in 10.0 mi South 9.2 mph - N/A   Clear
9:34 PM 77.0 °F - 62.6 °F 61% 29.92 in 10.0 mi South 9.2 mph - N/A   Clear
9:54 PM 77.0 °F - 62.6 °F 61% 29.93 in 10.0 mi SSW 6.9 mph - N/A   Clear
10:14 PM 75.2 °F - 62.6 °F 65% 29.93 in 10.0 mi South 8.1 mph - N/A   Clear
10:34 PM 75.2 °F - 62.6 °F 65% 29.93 in 10.0 mi South 9.2 mph - N/A   Clear
10:54 PM 75.2 °F - 62.6 °F 65% 29.93 in 10.0 mi South 9.2 mph - N/A   Clear
11:14 PM 75.2 °F - 62.6 °F 65% 29.93 in 10.0 mi South 9.2 mph - N/A   Clear
11:31 PM 73.4 °F - 62.6 °F 69% 29.93 in 10.0 mi South 10.4 mph - N/A   Clear
11:54 PM 73.4 °F - 62.6 °F 69% 29.93 in 10.0 mi SSW 10.4 mph - N/A   Clear